Location: Anglesey
(53.1800°N, 4.2200°W)
Time: 01:40:07
(UTC+00:00)

Envisat - Pass Details

Date: 12 October 2017
Orbit: 764 x 766 km, 98.2° (Epoch: 15 December)

Event Time Altitude Azimuth Distance (km) Brightness Sun altitude
Exits shadow 21:33:23 27° 212° (SSW) 1,439 4.4 -28.0°
Maximum altitude 21:35:35 41° 263° (W) 1,098 4.1 -28.3°
Drops below altitude 10° 21:40:26 10° 334° (NNW) 2,318 6.1 -28.9°
Sets 21:42:53 0° 341° (NNW) 3,250 6.9 -29.2°
